When you browse on this site, cookies collect data to enhance your experience and personalize the content and advertising you see.
Visit our Privacy Policy to learn more. By continuing to use the site, you agree to this use of cookies and data.
  • In Hungary
  • List of Countries
  • For 7 days
  • Water Temperature
  • Satellite Maps
  • Weather Map
  • News
  • Weather Widgets
  • user-avatar
    Login

    Hourly Weather Balatonmariafurdo

    Today, 20 February, Wednesday

    Time Temperature Precipitation Wind Pressure Humidity
    00:00 +8°C° 0 mm 1 mps 755 mmHg 64%
    01:00 +8°C° 0 mm 1 mps 755 mmHg 62%
    02:00 +8°C° 0 mm 1 mps 755 mmHg 64%
    03:00 +7°C° 0 mm 1 mps 755 mmHg 65%
    04:00 +7°C° 0 mm 1 mps 756 mmHg 66%
    05:00 +6°C° 0 mm 2 mps 756 mmHg 70%
    06:00 +6°C° 0 mm 2 mps 756 mmHg 74%
    07:00 +6°C° 0 mm 2 mps 756 mmHg 78%
    08:00 +7°C° 0 mm 3 mps 757 mmHg 71%
    09:00 +8°C° 0 mm 3 mps 757 mmHg 65%
    10:00 +9°C° 0 mm 3 mps 758 mmHg 59%
    11:00 +10°C° 0 mm 3 mps 758 mmHg 54%
    12:00 +11°C° 0 mm 3 mps 758 mmHg 50%
    13:00 +12°C° 0 mm 3 mps 758 mmHg 45%
    14:00 +12°C° 0 mm 3 mps 758 mmHg 46%
    15:00 +13°C° 0 mm 2 mps 758 mmHg 47%
    16:00 +13°C° 0 mm 2 mps 758 mmHg 48%
    17:00 +12°C° 0 mm 2 mps 758 mmHg 53%
    18:00 +11°C° 0 mm 1 mps 758 mmHg 58%
    19:00 +9°C° 0 mm 1 mps 758 mmHg 63%
    20:00 +9°C° 0 mm 1 mps 759 mmHg 66%
    21:00 +9°C° 0 mm 1 mps 759 mmHg 68%
    22:00 +8°C° 0 mm 1 mps 760 mmHg 71%
    23:00 +8°C° 0 mm 1 mps 760 mmHg 72%

    Tomorrow, 21 February, Thursday

    Time Temperature Precipitation Wind Pressure Humidity
    00:00 +8°C° 0 mm 1 mps 760 mmHg 73%
    01:00 +8°C° 0 mm 1 mps 760 mmHg 74%
    02:00 +8°C° 0 mm 1 mps 760 mmHg 75%
    03:00 +7°C° 0 mm 1 mps 760 mmHg 76%
    04:00 +7°C° 0 mm 1 mps 760 mmHg 77%
    05:00 +7°C° 0 mm 1 mps 760 mmHg 79%
    06:00 +7°C° 0 mm 1 mps 761 mmHg 80%
    07:00 +6°C° 0 mm 1 mps 761 mmHg 81%
    08:00 +8°C° 0 mm 1 mps 761 mmHg 74%
    09:00 +9°C° 0 mm 1 mps 761 mmHg 67%
    10:00 +11°C° 0 mm 1 mps 761 mmHg 60%
    11:00 +12°C° 0 mm 1 mps 761 mmHg 57%
    12:00 +13°C° 0 mm 2 mps 761 mmHg 55%
    13:00 +14°C° 0 mm 2 mps 760 mmHg 52%
    14:00 +14°C° 0 mm 2 mps 760 mmHg 52%
    15:00 +14°C° 0 mm 2 mps 760 mmHg 52%
    16:00 +14°C° 0 mm 2 mps 759 mmHg 52%
    17:00 +13°C° 0 mm 2 mps 759 mmHg 57%
    18:00 +12°C° 0 mm 2 mps 759 mmHg 61%
    19:00 +11°C° 0 mm 1 mps 759 mmHg 66%
    20:00 +11°C° 0 mm 1 mps 759 mmHg 67%
    21:00 +10°C° 0 mm 1 mps 759 mmHg 68%
    22:00 +10°C° 0 mm 1 mps 759 mmHg 69%
    23:00 +10°C° 0 mm 1 mps 759 mmHg 70%

    Day after tomorrow, 22 February, Friday

    Time Temperature Precipitation Wind Pressure Humidity
    00:00 +9°C° 0 mm 2 mps 759 mmHg 72%
    01:00 +9°C° 0 mm 2 mps 759 mmHg 73%
    02:00 +8°C° 0.1 mm 2 mps 759 mmHg 75%
    03:00 +8°C° 0.1 mm 2 mps 758 mmHg 77%
    04:00 +8°C° 0.1 mm 2 mps 758 mmHg 80%
    05:00 +8°C° 0 mm 3 mps 758 mmHg 79%
    06:00 +8°C° 0 mm 3 mps 758 mmHg 78%
    07:00 +8°C° 0 mm 3 mps 758 mmHg 77%
    08:00 +8°C° 0.1 mm 4 mps 758 mmHg 73%
    09:00 +9°C° 0.1 mm 6 mps 758 mmHg 70%
    10:00 +10°C° 0.1 mm 7 mps 758 mmHg 66%
    11:00 +10°C° 0.2 mm 8 mps 757 mmHg 61%
    12:00 +11°C° 0.2 mm 9 mps 757 mmHg 56%
    13:00 +12°C° 0.2 mm 11 mps 757 mmHg 51%
    14:00 +11°C° 0 mm 10 mps 758 mmHg 54%
    15:00 +9°C° 0 mm 10 mps 758 mmHg 57%
    16:00 +8°C° 0 mm 10 mps 758 mmHg 60%
    17:00 +7°C° 0 mm 10 mps 759 mmHg 58%
    18:00 +5°C° 0 mm 10 mps 760 mmHg 56%
    19:00 +2°C° 0 mm 10 mps 761 mmHg 55%
    20:00 +1°C° 0 mm 9 mps 763 mmHg 54%
    21:00 0°C° 0 mm 8 mps 764 mmHg 53%
    22:00 -1°C° 0 mm 8 mps 765 mmHg 51%
    23:00 -1°C° 0 mm 7 mps 765 mmHg 53%

    23 February, Saturday

    Time Temperature Precipitation Wind Pressure Humidity
    00:00 -2°C° 0 mm 6 mps 766 mmHg 54%
    01:00 -1°C° 0 mm 5 mps 766 mmHg 55%
    02:00 -2°C° 0 mm 5 mps 766 mmHg 55%
    03:00 -2°C° 0 mm 5 mps 766 mmHg 54%
    04:00 -4°C° 0 mm 5 mps 766 mmHg 54%
    05:00 -3°C° 0 mm 4 mps 767 mmHg 54%
    06:00 -3°C° 0 mm 4 mps 767 mmHg 53%
    07:00 -3°C° 0 mm 4 mps 767 mmHg 53%
    08:00 -2°C° 0 mm 4 mps 768 mmHg 49%
    09:00 -2°C° 0 mm 4 mps 768 mmHg 46%
    10:00 -1°C° 0 mm 4 mps 768 mmHg 43%
    11:00 -1°C° 0 mm 4 mps 768 mmHg 39%
    12:00 0°C° 0 mm 4 mps 768 mmHg 35%
    13:00 +1°C° 0 mm 5 mps 768 mmHg 31%
    14:00 +1°C° 0 mm 4 mps 768 mmHg 30%
    15:00 +1°C° 0 mm 4 mps 768 mmHg 30%
    16:00 +1°C° 0 mm 4 mps 767 mmHg 29%
    17:00 +1°C° 0 mm 3 mps 768 mmHg 33%
    18:00 0°C° 0 mm 3 mps 768 mmHg 36%
    19:00 -1°C° 0 mm 2 mps 768 mmHg 40%
    20:00 -1°C° 0 mm 2 mps 768 mmHg 41%
    21:00 -2°C° 0 mm 2 mps 769 mmHg 41%
    22:00 0°C° 0 mm 1 mps 769 mmHg 42%
    23:00 0°C° 0 mm 1 mps 769 mmHg 41%

    24 February, Sunday

    Time Temperature Precipitation Wind Pressure Humidity
    00:00 0°C° 0 mm 1 mps 769 mmHg 41%
    01:00 -1°C° 0 mm 1 mps 769 mmHg 41%
    02:00 -1°C° 0 mm 1 mps 768 mmHg 41%
    03:00 -1°C° 0 mm 1 mps 768 mmHg 41%
    04:00 -1°C° 0 mm 1 mps 768 mmHg 40%
    05:00 -1°C° 0 mm 1 mps 768 mmHg 41%
    06:00 -1°C° 0 mm 1 mps 768 mmHg 41%
    07:00 -2°C° 0 mm 1 mps 768 mmHg 41%
    08:00 -2°C° 0 mm 2 mps 768 mmHg 37%
    09:00 -1°C° 0 mm 2 mps 768 mmHg 33%
    10:00 0°C° 0 mm 3 mps 768 mmHg 29%
    11:00 +1°C° 0 mm 3 mps 767 mmHg 27%
    12:00 +2°C° 0 mm 3 mps 767 mmHg 25%
    13:00 +3°C° 0 mm 3 mps 766 mmHg 24%
    14:00 +3°C° 0 mm 4 mps 766 mmHg 25%
    15:00 +3°C° 0 mm 4 mps 766 mmHg 26%
    16:00 +3°C° 0 mm 4 mps 765 mmHg 27%
    17:00 +2°C° 0 mm 3 mps 766 mmHg 31%
    18:00 +1°C° 0 mm 3 mps 766 mmHg 35%
    19:00 +1°C° 0 mm 2 mps 766 mmHg 40%
    20:00 -1°C° 0 mm 2 mps 766 mmHg 40%
    21:00 -1°C° 0 mm 2 mps 767 mmHg 41%
    22:00 -1°C° 0 mm 2 mps 767 mmHg 41%
    23:00 -1°C° 0 mm 2 mps 767 mmHg 43%

    25 February, Monday

    Time Temperature Precipitation Wind Pressure Humidity
    00:00 -1°C° 0 mm 2 mps 767 mmHg 45%
    01:00 -1°C° 0 mm 2 mps 767 mmHg 48%
    02:00 -2°C° 0 mm 2 mps 766 mmHg 50%
    03:00 -2°C° 0 mm 2 mps 766 mmHg 53%
    04:00 -2°C° 0 mm 3 mps 766 mmHg 55%
    05:00 -2°C° 0 mm 3 mps 766 mmHg 56%
    06:00 -2°C° 0 mm 3 mps 766 mmHg 57%
    07:00 -2°C° 0 mm 3 mps 766 mmHg 58%
    08:00 0°C° 0 mm 3 mps 766 mmHg 53%
    09:00 +1°C° 0 mm 3 mps 766 mmHg 48%
    10:00 +3°C° 0 mm 3 mps 766 mmHg 43%
    11:00 +4°C° 0 mm 3 mps 766 mmHg 42%
    12:00 +5°C° 0 mm 4 mps 765 mmHg 41%
    13:00 +6°C° 0 mm 4 mps 765 mmHg 40%
    14:00 +6°C° 0 mm 4 mps 764 mmHg 41%
    15:00 +6°C° 0 mm 4 mps 764 mmHg 42%
    16:00 +6°C° 0 mm 4 mps 764 mmHg 43%
    17:00 +5°C° 0 mm 4 mps 764 mmHg 49%
    18:00 +4°C° 0 mm 3 mps 764 mmHg 55%
    19:00 +3°C° 0 mm 3 mps 764 mmHg 61%
    20:00 +3°C° 0 mm 3 mps 764 mmHg 63%
    21:00 +3°C° 0 mm 4 mps 764 mmHg 64%
    22:00 +3°C° 0 mm 4 mps 764 mmHg 66%
    23:00 +1°C° 0 mm 4 mps 764 mmHg 68%
    Show more